Вернуться в каталог

CZ-6A DEB

АктивенPO
NORAD 61083·DEBRIS·🇨🇳 China

Запущен Aug 6, 2024 с Taiyuan Satellite Launch Center

Loading…

Ближайшие Пролёты (ближайшие 24 часа)

TLE

СвежийSource: Space-Track

Эпоха: Sep 14, 2026, 23:07 UTC

1 61083U 24140MZ  26257.96377514  .00000344  00000-0  90492-4 0  9992
2 61083  88.8903 251.0277 0098267  23.6119 336.9548 14.43833594108162

Отслеживайте CZ-6A DEB в реальном времени с AllMySat

Download on the App Store